Weather Roundup
Issued by NWS Chicago, IL

Home | Current Version | Previous Version | Text Only | Print | Product List | Glossary Off
Versions: 1 2 3 4 5 6 7 8 9 10 11 12 13 14 15 16 17 18 19 20 21 22 23 24 25 26 27 28 29 30 31 32 33 34 35 36 37 38 39 40 41 42 43 44 45 46 47 48 49 50

367
NZUS59 KLOT 252108
HRRLOT

CHICAGO AREA WEATHER ROUNDUP
NATIONAL WEATHER SERVICE CHICAGO/ROMEOVILLE IL
400 PM CDT THU MAY 25 2017

NOTE: "FAIR" INDICATES FEW OR NO CLOUDS BELOW 12,000 FEET WITH NO
SIGNIFICANT WEATHER AND/OR OBSTRUCTIONS TO VISIBILITY.

* THESE STATIONS ARE NOT UNDER NWS QUALITY CONTROL. THEY ALSO MAY NOT
  REPORT WEATHER SUCH AS PRECIPITATION OR FOG.

ILZ005-006-012>014-019>023-252200-
NORTHEAST ILLINOIS

CITY           SKY/WX    TMP DP  RH WIND       PRES   REMARKS
OHARE          CLOUDY    68  52  56 N9        29.64S
MIDWAY         PTSUNNY   68  54  60 N9        29.64S
AURORA         CLOUDY    67  56  67 NW12      29.67R
LANSING*       MOSUNNY   64  56  73 NE14G20   29.65S
JOLIET*        CLOUDY    67  57  68 W6        29.66R
WAUKEGAN       MOSUNNY   67  54  63 NE12      29.64S
DUPAGE AIRPORT PTSUNNY   67  57  70 W5        29.65R
WHEELING       CLOUDY    64  53  67 E9        29.66R
KANKAKEE*      PTSUNNY   68  55  62 CALM      29.67R
MORRIS*        CLOUDY    65  54  67 NW8       29.67R
LEWIS AIRPORT* PTSUNNY   67  58  73 NW9       29.66R
NORTHERLY ISL    N/A     58  50  75 N14         N/A
$$

WIZ051-052-058>065-066-070>072-252200-
SOUTHEAST WISCONSIN

CITY           SKY/WX    TMP DP  RH WIND       PRES   REMARKS
MILWAUKEE      MOSUNNY   61  51  70 NE16G22   29.66S
KENOSHA*       MOSUNNY   67  52  58 N14G21    29.65S
RACINE*        SUNNY     61  51  70 N13G22    29.68R
WAUKESHA       PTSUNNY   70  48  46 NE13      29.66S
WEST BEND      PTSUNNY   66  50  55 NE8       29.65S
$$

INZ001>003-010>013-019-020-252200-
NORTHWEST INDIANA

CITY           SKY/WX    TMP DP  RH WIND       PRES   REMARKS
GARY*          PTSUNNY   64  52  63 N14G26    29.66S
MICHIGAN CITY* NOT AVBL
RENSSELAER*    NOT AVBL
VALPARAISO     CLOUDY    62  54  74 NW10G18   29.64F
$$

LMZ740>746-252200-
SOUTHERN LAKE MICHIGAN

STATION/POSITION TIME  SKY/WX   TEMP WIND        PRES    VSBY
                                AIR  DIR/SP/G
                 (UTC)          (F)  (DEG/KT/KT) (MB)    (MI)
HARRISON CRIB    2040            52  330/ 10/ 10   N/A
BURNHAM HARBOR   2100            59   10/  9/ 15   N/A
CALUMET HARBOR   2048            56  350/ 11/ 16 1004.1R
BURNS HARBOR     2040            52  310/  8/ 10 1004.7F
MICHIGAN CITY    2040            50  300/ 11/ 13   N/A
$$

ABBREVIATIONS USED IN REMARKS
   TC - TEMPERATURE IN CELSIUS
  WCI - WIND CHILL INDEX
   HX - HEAT INDEX
  VSB - VISIBILITY
$$




USA.gov is the U.S. government's official web portal to all federal, state and local government web resources and services.